map of PRN home
PRN - Airport
Location
City:  Pristina, Kosovo
Near (Alt.):Prishtinė, Prishtina
Name:Pristina International Airport
ICAO:BKPR
IATA:PRN

Details
Type:Airport (Aerodrome, Airfield)
Use:Public/Civil, Military, International (customs port of entry)
Latitude:42°34'22"N (42.572778)
Longitude:21°02'09"E (21.035833)
Elevation:1789 ft (545 m)
Variation:4.66°E (WMM2015 magnetic declination)
0.10° annual change
Runways:1
Longest:8202 × 148 ft (2500 × 45 m), paved

Weather
METAR:BKPR 152000Z 36016KT 9999 -RASN SCT012 BKN035 00/M02 Q1013 NOSIG RMK 17290095
TAF:BKPR 151730Z 1518/1618 35012KT 9999 SCT030 BKN070
TEMPO 1518/1608 1500 -SN BR BKN010

Related Locations
Nearby:
Farthest:CHT: 11555 mi / 18596 km
Waitangi [Tuuta], CIT, NZ

Find:

   beyond  
but within

Other Information
Maps:
NOTAMs:
Links:
Sources:

  
  • flag of Kosovo
  

Sectional Chart

Flight Planning
at skyvector.com

Satellite Image

Google Maps Satellite view

 

Copyright © 2004-2018 Karl L. Swartz. All rights reserved.
The Great Circle Mapper name and logo are trademarks of the Great Circle Mapper.
All other trademarks mentioned herein belong to their respective owners.
Please see credits for attibutions and further copyright information.

  Follow gcmap on Facebook Follow gcmap on Twitter Follow gcmap on Google+ GCmap on LinkedIn

hCard Microformat

Geo Microformat